www.pogodaiklimat.ru
ПОГОДА в Уэстфилде
Время
(UTC), дата
08:53 20.11
09:09 20.11
09:24 20.11
09:53 20.11
10:34 20.11
10:43 20.11
10:53 20.11
11:08 20.11
11:20 20.11
11:51 20.11
11:53 20.11
12:07 20.11
12:53 20.11
13:20 20.11
13:53 20.11
14:53 20.11
15:53 20.11
16:00 20.11
16:53 20.11
17:09 20.11
17:53 20.11
18:53 20.11
19:03 20.11
19:53 20.11
20:53 20.11
21:53 20.11
22:53 20.11
23:53 20.11
00:53 20.11
01:53 20.11
02:53 20.11
03:53 20.11
04:53 21.11
05:53 21.11
06:53 21.11
07:53 21.11
08:53 21.11
09:53 21.11
10:53 21.11
11:53 21.11
12:53 21.11
13:53 21.11
14:53 21.11
15:53 21.11
16:53 21.11
17:53 21.11
18:53 21.11
19:53 21.11
Ветер
(напр.,м/с)
Видим. Явления Облачность Т
(С)
Тd
(С)
f
(%)
Тe
(С)
Тes
(С)
Комфортность P
(гПа)
Po
(гПа)
Тmin
(С)
Tmax
(С)
R
(мм)
R24
(мм)
S
(см)
С 3 16 км 10/10 930 м +3.3 +1.7 89 -1 -1 1011.6 1001.3
С 2 16 км 10/10 420 м +3.3 +1.7 89 -0 -0 1001.3
С 1 16 км 10/10 390 м +3.3 +1.7 89 +1 +1 1001.3
С 3 16 км 10/10 360 м +3.3 +1.1 85 -1 -1 1011.9 1001.6
С 3 10 км дымка 10/10 210 м +3.3 +1.7 89 -1 -1 1001.9
С 3 10 км дымка 10/10 210 м +3.3 +1.7 89 -1 -1 1001.9
С 3 6 км дымка 10/10 210 м +3.3 +2.2 92 -1 -1 1012.6 1002.3 +3.3 +3.9
С 3 4 км дымка 10/10 180 м +3.3 +2.2 92 -1 -1 1002.3
С 3 6 км дымка 10/10 180 м +3.3 +2.2 92 -1 -1 1002.6
С 4 4 км дымка 10/10 180 м +3.0 +2.0 93 -2 -2 1002.6
С 3 4 км дымка 10/10 180 м +3.3 +2.2 92 -1 -1 1013.1 1002.6
С 4 5 км дымка 10/10 180 м +3.3 +2.2 92 -2 -2 1002.6
С 4 4 км слабый дождь, дымка 10/10 180 м +3.9 +2.2 89 -1 -1 1013.5 1002.9
С 4 5 км слабый дождь, дымка 10/10 180 м +3.9 +2.8 93 -1 -1 1002.9
С 4 16 км 10/8 180 м
[средняя]
+3.9 +2.8 93 -1 -1 1013.6 1003.3
С 3 16 км 10/10 180 м +5.0 +3.3 89 +1 +1 1013.5 1002.9
СЗ 4 16 км 10/10 240 м +5.6 +2.2 79 +2 +2 1013.2 1002.9
СЗ 5 16 км 10/10 300 м +5.6 +2.2 79 +1 +1 1002.9
С 4 16 км 10/10 300 м +5.6 +1.1 73 +2 +2 1013.3 1002.9 +3.3 +5.6
С 6
{9}
8 км слабый дождь 10/10 720 м +5.0 +0.6 73 -0 -0 1002.9
СЗ 4 8 км слабый дождь 10/10 750 м +4.4 +1.1 79 -0 -0 1013.6 1003.3
СЗ 5 16 км 10/10 870 м +4.4 0.0 73 -1 -1 1013.9 1003.6
СЗ 5 16 км 10/10 900 м +4.4 -0.6 70 -1 -1 1003.6
С 5 16 км слабый дождь 10/10 930 м +3.9 -1.1 70 -1 -1 1014.7 1004.3
С 6 16 км слабый дождь 10/10 1080 м +3.3 -1.1 73 -2 -2 1015.3 1005.0
С 4 16 км 10/8 1800 м
[средняя]
+3.3 -1.7 70 -1 -1 1015.8 1005.3
С 3 16 км 2/2 1290 м +2.8 -2.2 70 -1 -1 1016.3 1006.0 +2.8 +5.6
С 3 16 км 10/10 1050 м +2.8 -1.7 72 -1 -1 1017.1 1006.6
С 2 16 км 10/10 1050 м +2.8 -1.7 72 -1 -1 1017.7 1007.3
С 3 16 км 10/10 1110 м +2.8 -1.7 72 -1 -1 1017.9 1007.6
С 4 16 км 5/5 990 м +2.2 -2.2 73 -3 -3 1018.3 1008.0
СЗ 3 16 км ясно +1.7 -2.2 75 -3 -3 1018.7 1008.3
С 4 16 км ясно +2.2 -2.2 73 -3 -3 1018.5 1008.0 +1.1 +3.3
С 3 16 км ясно +1.7 -2.2 75 -2 -2 1019.1 1008.6
С 2 16 км ясно +1.1 -2.2 79 -3 -3 1019.6 1009.0
С 3 16 км ясно 0.0 -2.8 81 -5 -5 1020.0 1009.3
0 16 км ясно -1.1 -3.3 85 -2 -2 1020.7 1010.0
0 16 км ясно -2.8 -3.9 92 -4 -4 1021.0 1010.3
0 16 км ясно -2.8 -3.9 92 -4 -4 1021.8 1011.3 -2.8 +2.2 0.3
0 16 км ясно -1.1 -2.2 92 -2 -2 1022.2 1011.7
С 4 16 км ясно +3.3 -2.2 67 -1 -1 1022.0 1011.7
СЗ 4 16 км ясно +5.6 -2.2 57 +2 +3 1022.2 1011.7
СЗ 4 16 км ясно +7.8 -2.2 49 +5 +6 1021.5 1011.0
нст 2 16 км ясно +8.9 -2.2 46 +7 +11 1020.3 1010.0
С 1 16 км ясно +10.0 -3.3 39 +10 +15 1019.3 1009.0 -2.8 +10.0
ЮЗ 3 16 км ясно +10.0 -2.8 41 +8 +12 1018.6 1008.3
СЗ 3 16 км ясно +10.0 -3.3 39 +8 +11 1018.6 1008.3
СЗ 2 16 км ясно +8.9 -2.8 44 +7 +8 1018.6 1008.3
Местоположение метеостанции Barnes Municipal Airport: широта 42.1597 долгота -72.7128 высота над уровнем моря 82 м.
В архиве по умолчанию представлена погода в Уэстфилде за последние 1-2 суток. Обновление информации о фактической погоде в базе происходит ежечасно! Архивные данные за месяц целиком и за предыдущие месяцы Вы можете получить, выбрав интересующий диапазон дат из раскрывающегося списка и нажав кнопку "Ввод!".
Внимание! Архив погоды МЕТАР в базе сайта по станциям, не включенным в климатический монитор, хранится не более 60 дней. Нет смысла пытаться выбрать более раннюю дату.
*Определитесь, кто Вы:
Внимание! Время в таблицах - всемирное. Для получения местного времени необходимо прибавить поправку, которая равна ч.
Смотрите также архив погоды в соседних городах и на ближайших метеорологических станциях:
Партнеры нашего сайта:      
Пояснения к столбцам:
  • Ветер - указаны скорость ветра в м/с - средняя за 10 мин, порывы в срок и между сроками (в фигурных скобках) и направление, откуда дует ветер: С - северный,
  • СВ - северо-восточный, В - восточный, ЮВ - юго-восточный, Ю - южный, ЮЗ - юго-западный, З - западный, СЗ - северо-западный.
  • Видимость - горизонтальная дальность видимости в метрах или километрах. При видимости от 1 до 10 км при отсутствии осадков обычно наблюдается дымка, при ухудшении видимости до 1 км и менее - туман. В сухую погоду видимость может ухудшаться дымом, пылью или мглою.
  • Явления - указаны атмосферные явления, наблюдавшиеся в срок или в последний час перед сроком; фигурными скобками обозначены явления, наблюдавшиеся между сроками (за 1-3 часа до срока); квадратными скобками обозначены град или гололедные отложения с указанием их диаметра в мм.
  • Облачность - указаны через наклонную черту общая и нижняя облачность в баллах и высота нижней границы облаков в метрах; квадратными скобками обозначены формы облаков: Ci - перистые, Cs - перисто-слоистые, Cc - перисто-кучевые, Ac - высококучевые, As - высокослоистые, Sc - слоисто-кучевые, Ns - слоисто-дождевые, Cu - кучевые, Cb - кучево-дождевые. Подробнее классификацию облаков см. в Атласе облаков (PDF).
  • T - Температура воздуха - температура, измеренная на высоте 2 м над землей.
  • Td - Температура точки росы - температура, при понижении до которой содержащийся в воздухе водяной пар достигнет насыщения.
  • f - Относительная влажность воздуха - влажноcть воздуха, измеренная на высоте 2 м над землей.
  • Te - Эффективная температура - температура, которую ощущает одетый по сезону человек в тени. Характеристика душности погоды. При расчете учитывается влияние влажности воздуха и скорости ветра на теплоощущения человека.
  • Tes - Эффективная температура на солнце - температура, которую ощущает человек, с поправкой на солнечный нагрев. Характеристика знойности погоды. Зависит от высоты солнца над горизонтом, облачности и скорости ветра. Ночью, в пасмурную погоду, а также при ветре 12 м/с и более поправка равна нулю.
  • P - Атмосферное давление - приведенное к уровню моря атмосферное давление.
  • Po - Атмосферное давление - измеренное на уровне метеостанции атмосферное давление.
  • Tmin - Минимальная температура - минимум температуры воздуха на высоте 2 м над землей.
  • Tmax - Максимальная температура - максимум температуры воздуха на высоте 2 м над землей.
  • R - Количество осадков - Количество выпавших осадков за период времени, мм. При наведении курсора мыши на число - период времени, за который выпало указанное количество осадков.
  • R24 - Количество осадков - Количество выпавших осадков за 24 часа, мм.
  • S - Снежный покров - Высота снежного покрова, см. При наведении курсора мыши на число - состояние снежного покрова и степень покрытия местности в баллах.